Location: Theydon Bois
(51.6750°N, 0.1050°E)
Time: 20:31:53
(UTC+01:00)

ISS - Visible Passes

Search period start: 20 May 2018 00:00
Search period end: 30 May 2018 00:00
Orbit: 402 x 407 km, 51.6° (Epoch: 21 May)

Date Brightness Start Highest point End Pass type
(mag) Time Alt. Az. Time Alt. Az. Time Alt. Az.
20 May -4.0 00:38:55 68° SSW 00:39:09 73° SSE 00:42:25 10° E visible
20 May -3.9 02:12:21 10° W 02:15:38 88° S 02:18:55 10° E visible
20 May -3.3 03:48:54 10° W 03:51:59 38° SSW 03:55:02 10° SE visible
20 May -2.2 22:08:55 10° S 22:11:02 16° SE 22:13:08 10° ESE visible
20 May -3.8 23:43:49 10° WSW 23:47:01 56° SSE 23:50:15 10° E visible
21 May -3.9 01:20:11 10° W 01:23:28 88° N 01:26:45 10° E visible
21 May -3.8 02:56:41 10° W 02:59:54 54° SSW 03:03:06 10° ESE visible
21 May -3.4 22:51:51 10° SW 22:54:55 40° SSE 22:58:02 10° E visible
22 May -4.0 00:28:00 10° W 00:31:16 89° S 00:34:33 10° E visible
22 May -4.0 02:04:29 10° W 02:07:45 71° SSW 02:11:00 10° ESE visible
22 May -2.7 03:41:15 10° W 03:43:54 23° SSW 03:46:33 10° SSE visible
22 May -2.9 22:00:01 10° SSW 22:02:52 28° SSE 22:05:43 10° E visible
22 May -4.0 23:35:49 10° WSW 23:39:05 78° S 23:42:22 10° E visible
23 May -4.0 01:12:18 10° W 01:15:35 84° S 01:18:52 10° E visible
23 May -3.2 02:48:52 10° W 02:51:52 33° SSW 02:54:51 10° SE visible
23 May -3.9 22:43:40 10° WSW 22:46:55 62° SSE 22:50:09 10° E visible
24 May -3.9 00:20:05 10° W 00:23:22 89° NNW 00:26:39 10° E visible
24 May -3.7 01:56:35 10° W 01:59:46 48° SSW 02:00:17 43° S visible
24 May -3.5 21:51:36 10° SW 21:54:46 45° SSE 21:57:55 10° E visible
24 May -3.9 23:27:51 10° W 23:31:09 89° NNE 23:34:25 10° E visible
25 May -4.0 01:04:21 10° W 01:07:36 65° SSW 01:08:15 49° SE visible
25 May -3.9 22:35:37 10° WSW 22:38:55 83° SSE 22:42:11 10° E visible
26 May -4.0 00:12:07 10° W 00:15:24 80° S 00:17:10 25° ESE visible
26 May -1.8 01:48:44 10° W 01:49:47 17° W 01:49:47 17° W visible
26 May -3.9 21:43:25 10° WSW 21:46:41 68° SSE 21:49:57 10° E visible
26 May -3.9 23:19:52 10° W 23:23:09 90° S 23:26:19 11° E visible
27 May -3.2 00:56:23 10° W 00:58:56 38° SW 00:58:56 38° SW visible
27 May -3.8 22:27:36 10° W 22:30:53 88° NNW 22:34:10 10° E visible
28 May -3.8 00:04:06 10° W 00:07:20 59° SSW 00:08:10 41° SE visible
28 May -3.9 23:11:50 10° W 23:15:06 75° SSW 23:17:28 17° ESE visible
29 May -2.1 00:48:30 10° W 00:50:06 20° WSW 00:50:06 20° WSW visible
29 May -3.9 22:19:32 10° W 22:22:49 87° S 22:26:06 10° E visible
